Location: Melbourne
(37.8170°S, 144.9670°E)
Time: 06:47:28
(UTC+11:00)

ADEOS Rocket - Visible Passes

Search period start: 24 January 2018 00:00
Search period end: 03 February 2018 00:00
Orbit: 858 x 1307 km, 98.8° (Epoch: 23 January)

Date Brightness Start Highest point End Pass type
(mag) Time Alt. Az. Time Alt. Az. Time Alt. Az.
24 Jan 3.8 00:24:35 49° E 00:25:28 51° ESE 00:32:51 10° S visible
24 Jan 4.5 02:11:33 30° W 02:11:33 30° W 02:17:40 10° SSW visible
24 Jan 4.8 23:35:02 21° E 23:37:12 25° ESE 23:43:04 10° S visible
25 Jan 3.5 01:21:59 68° W 01:21:59 68° W 01:29:34 10° SSW visible
25 Jan 5.6 22:47:31 10° ESE 22:49:21 11° SE 22:51:10 10° SE visible
26 Jan 3.7 00:32:27 57° E 00:33:03 58° ESE 00:40:38 10° S visible
26 Jan 4.7 02:19:24 26° W 02:19:24 26° W 02:25:07 10° SW visible
26 Jan 4.7 23:42:54 25° E 23:44:42 28° ESE 23:51:01 10° S visible
27 Jan 3.7 01:29:51 59° W 01:29:51 59° W 01:37:13 10° SSW visible
27 Jan 5.4 22:53:39 10° ESE 22:56:46 13° SE 22:59:57 10° SSE visible
28 Jan 3.5 00:40:19 66° E 00:40:40 67° ESE 00:48:24 10° S visible
28 Jan 4.9 02:27:17 23° W 02:27:17 23° W 02:32:30 10° SW visible
28 Jan 4.5 23:50:47 30° E 23:52:14 32° ESE 23:58:54 10° S visible
29 Jan 3.9 01:37:45 51° W 01:37:45 51° W 01:44:49 10° SSW visible
29 Jan 5.3 23:01:15 12° E 23:04:14 15° SE 23:08:17 10° SSE visible
30 Jan 3.5 00:48:13 76° E 00:48:17 76° ESE 00:56:08 10° S visible
30 Jan 5.1 02:35:10 20° W 02:35:10 20° W 02:39:48 10° SW visible
30 Jan 4.3 23:58:41 35° E 23:59:47 37° ESE 00:06:46 10° S visible
31 Jan 4.1 01:45:39 45° W 01:45:39 45° W 01:52:24 10° SSW visible
31 Jan 5.2 23:09:10 15° E 23:11:42 18° ESE 23:16:27 10° SSE visible
01 Feb 3.5 00:56:07 84° SE 00:56:07 84° SE 01:03:50 10° SSW visible
01 Feb 5.2 02:43:05 17° W 02:43:05 17° W 02:46:59 10° SW visible
02 Feb 4.2 00:06:36 41° E 00:07:22 42° ESE 00:14:35 10° S visible
02 Feb 4.3 01:53:34 39° W 01:53:34 39° W 01:59:57 10° SSW visible
02 Feb 5.1 23:17:06 18° ESE 23:19:11 20° ESE 23:24:31 10° SSE visible
